When you browse on this site, cookies collect data to enhance your experience and personalize the content and advertising you see.
Visit our Privacy Policy to learn more. By continuing to use the site, you agree to this use of cookies and data.
  • In Denmark
  • List of Countries
  • For 7 days
  • Water Temperature
  • Satellite Maps
  • Weather Map
  • Weather Widgets
  • user-avatar
    Login

    Hourly Weather Sevan

    Today, 21 July, Sunday

    Time Temperature Precipitation Wind Pressure Humidity
    00:00 +21°C° 0 mm 3 mps 644 mmHg 72%
    01:00 +21°C° 0 mm 3 mps 644 mmHg 71%
    02:00 +20°C° 0 mm 3 mps 644 mmHg 70%
    03:00 +20°C° 0 mm 3 mps 644 mmHg 72%
    04:00 +20°C° 0 mm 3 mps 644 mmHg 70%
    05:00 +21°C° 0 mm 2 mps 644 mmHg 68%
    06:00 +21°C° 0 mm 2 mps 644 mmHg 66%
    07:00 +24°C° 0 mm 2 mps 644 mmHg 60%
    08:00 +26°C° 0 mm 2 mps 645 mmHg 53%
    09:00 +28°C° 0 mm 2 mps 645 mmHg 47%
    10:00 +30°C° 0 mm 2 mps 645 mmHg 43%
    11:00 +32°C° 0 mm 2 mps 646 mmHg 38%
    12:00 +34°C° 0 mm 3 mps 646 mmHg 34%
    13:00 +35°C° 0 mm 3 mps 645 mmHg 33%
    14:00 +35°C° 0 mm 4 mps 645 mmHg 32%
    15:00 +36°C° 0 mm 4 mps 644 mmHg 32%
    16:00 +34°C° 0 mm 4 mps 644 mmHg 37%
    17:00 +33°C° 0 mm 4 mps 644 mmHg 43%
    18:00 +32°C° 0 mm 4 mps 644 mmHg 48%
    19:00 +30°C° 0 mm 4 mps 644 mmHg 48%
    20:00 +28°C° 0 mm 4 mps 643 mmHg 48%
    21:00 +27°C° 0 mm 4 mps 643 mmHg 48%
    22:00 +26°C° 0 mm 4 mps 643 mmHg 49%
    23:00 +25°C° 0 mm 3 mps 643 mmHg 51%

    Tomorrow, 22 July, Monday

    Time Temperature Precipitation Wind Pressure Humidity
    00:00 +24°C° 0 mm 3 mps 643 mmHg 52%
    01:00 +24°C° 0 mm 3 mps 642 mmHg 54%
    02:00 +23°C° 0 mm 2 mps 642 mmHg 56%
    03:00 +23°C° 0 mm 2 mps 642 mmHg 58%
    04:00 +23°C° 0 mm 2 mps 642 mmHg 57%
    05:00 +23°C° 0 mm 2 mps 642 mmHg 56%
    06:00 +24°C° 0 mm 2 mps 642 mmHg 55%
    07:00 +26°C° 0 mm 2 mps 642 mmHg 49%
    08:00 +28°C° 0 mm 2 mps 643 mmHg 43%
    09:00 +30°C° 0 mm 2 mps 643 mmHg 37%
    10:00 +32°C° 0 mm 2 mps 643 mmHg 34%
    11:00 +34°C° 0 mm 3 mps 643 mmHg 30%
    12:00 +36°C° 0 mm 3 mps 643 mmHg 26%
    13:00 +37°C° 0 mm 4 mps 643 mmHg 26%
    14:00 +37°C° 0 mm 4 mps 643 mmHg 26%
    15:00 +39°C° 0 mm 5 mps 642 mmHg 25%
    16:00 +36°C° 0.1 mm 5 mps 642 mmHg 33%
    17:00 +35°C° 0.1 mm 5 mps 641 mmHg 40%
    18:00 +33°C° 0.1 mm 5 mps 641 mmHg 47%
    19:00 +30°C° 0 mm 5 mps 641 mmHg 51%
    20:00 +28°C° 0 mm 5 mps 641 mmHg 55%
    21:00 +26°C° 0 mm 5 mps 641 mmHg 59%
    22:00 +25°C° 0 mm 5 mps 641 mmHg 61%
    23:00 +25°C° 0 mm 4 mps 641 mmHg 64%

    Day after tomorrow, 23 July, Tuesday

    Time Temperature Precipitation Wind Pressure Humidity
    00:00 +23°C° 0 mm 4 mps 640 mmHg 67%
    01:00 +22°C° 0 mm 3 mps 640 mmHg 68%
    02:00 +21°C° 0 mm 3 mps 640 mmHg 70%
    03:00 +21°C° 0 mm 3 mps 640 mmHg 72%
    04:00 +21°C° 0 mm 3 mps 640 mmHg 71%
    05:00 +21°C° 0 mm 2 mps 640 mmHg 71%
    06:00 +23°C° 0 mm 2 mps 641 mmHg 71%
    07:00 +24°C° 0 mm 2 mps 641 mmHg 65%
    08:00 +26°C° 0 mm 2 mps 641 mmHg 60%
    09:00 +28°C° 0 mm 2 mps 642 mmHg 55%
    10:00 +29°C° 0 mm 2 mps 642 mmHg 50%
    11:00 +31°C° 0 mm 2 mps 642 mmHg 45%
    12:00 +33°C° 0 mm 3 mps 642 mmHg 40%
    13:00 +33°C° 0.1 mm 3 mps 642 mmHg 40%
    14:00 +34°C° 0.1 mm 3 mps 641 mmHg 40%
    15:00 +34°C° 0.1 mm 3 mps 641 mmHg 39%
    16:00 +33°C° 0.2 mm 4 mps 640 mmHg 46%
    17:00 +30°C° 0.2 mm 5 mps 640 mmHg 52%
    18:00 +28°C° 0.2 mm 5 mps 640 mmHg 58%
    19:00 +27°C° 0 mm 5 mps 640 mmHg 63%
    20:00 +25°C° 0 mm 5 mps 640 mmHg 68%
    21:00 +22°C° 0 mm 5 mps 640 mmHg 73%
    22:00 +22°C° 0 mm 5 mps 640 mmHg 73%
    23:00 +21°C° 0 mm 4 mps 640 mmHg 73%

    24 July, Wednesday

    Time Temperature Precipitation Wind Pressure Humidity
    00:00 +21°C° 0 mm 4 mps 640 mmHg 73%
    01:00 +21°C° 0 mm 3 mps 640 mmHg 73%
    02:00 +20°C° 0 mm 3 mps 639 mmHg 74%
    03:00 +20°C° 0 mm 2 mps 639 mmHg 75%
    04:00 +20°C° 0 mm 2 mps 639 mmHg 73%
    05:00 +20°C° 0 mm 2 mps 640 mmHg 71%
    06:00 +21°C° 0 mm 2 mps 640 mmHg 69%
    07:00 +24°C° 0 mm 2 mps 640 mmHg 63%
    08:00 +26°C° 0 mm 2 mps 641 mmHg 57%
    09:00 +28°C° 0 mm 2 mps 641 mmHg 51%
    10:00 +29°C° 0.1 mm 2 mps 641 mmHg 44%
    11:00 +31°C° 0.1 mm 3 mps 642 mmHg 38%
    12:00 +33°C° 0.1 mm 3 mps 642 mmHg 31%
    13:00 +34°C° 0 mm 3 mps 642 mmHg 28%
    14:00 +34°C° 0 mm 4 mps 642 mmHg 25%
    15:00 +35°C° 0 mm 4 mps 641 mmHg 22%
    16:00 +34°C° 0 mm 4 mps 641 mmHg 25%
    17:00 +34°C° 0 mm 4 mps 641 mmHg 27%
    18:00 +33°C° 0 mm 4 mps 641 mmHg 30%
    19:00 +29°C° 0 mm 4 mps 640 mmHg 38%
    20:00 +26°C° 0 mm 3 mps 640 mmHg 46%
    21:00 +22°C° 0 mm 3 mps 640 mmHg 55%
    22:00 +22°C° 0 mm 3 mps 640 mmHg 53%
    23:00 +21°C° 0 mm 3 mps 640 mmHg 52%

    25 July, Thursday

    Time Temperature Precipitation Wind Pressure Humidity
    00:00 +21°C° 0 mm 2 mps 640 mmHg 51%
    01:00 +21°C° 0 mm 2 mps 640 mmHg 51%
    02:00 +20°C° 0 mm 2 mps 640 mmHg 52%
    03:00 +20°C° 0 mm 2 mps 640 mmHg 53%
    04:00 +20°C° 0 mm 2 mps 640 mmHg 53%
    05:00 +21°C° 0 mm 2 mps 640 mmHg 53%
    06:00 +22°C° 0 mm 1 mps 640 mmHg 53%
    07:00 +24°C° 0 mm 2 mps 641 mmHg 47%
    08:00 +27°C° 0 mm 2 mps 641 mmHg 41%
    09:00 +29°C° 0 mm 2 mps 642 mmHg 35%
    10:00 +30°C° 0 mm 3 mps 642 mmHg 30%
    11:00 +33°C° 0 mm 3 mps 642 mmHg 26%
    12:00 +34°C° 0 mm 4 mps 642 mmHg 21%
    13:00 +35°C° 0 mm 4 mps 641 mmHg 21%
    14:00 +35°C° 0 mm 4 mps 641 mmHg 20%
    15:00 +36°C° 0 mm 4 mps 640 mmHg 19%
    16:00 +35°C° 0 mm 4 mps 640 mmHg 24%
    17:00 +34°C° 0 mm 4 mps 640 mmHg 28%
    18:00 +33°C° 0 mm 4 mps 639 mmHg 33%
    19:00 +29°C° 0 mm 4 mps 639 mmHg 41%
    20:00 +27°C° 0 mm 4 mps 639 mmHg 50%
    21:00 +23°C° 0 mm 4 mps 639 mmHg 58%
    22:00 +22°C° 0 mm 4 mps 639 mmHg 61%
    23:00 +21°C° 0 mm 3 mps 639 mmHg 64%

    26 July, Friday

    Time Temperature Precipitation Wind Pressure Humidity
    00:00 +20°C° 0 mm 3 mps 639 mmHg 66%
    01:00 +19°C° 0 mm 3 mps 638 mmHg 69%
    02:00 +19°C° 0 mm 2 mps 638 mmHg 71%
    03:00 +18°C° 0 mm 2 mps 638 mmHg 74%
    04:00 +19°C° 0 mm 2 mps 638 mmHg 73%
    05:00 +19°C° 0 mm 2 mps 639 mmHg 72%
    06:00 +20°C° 0 mm 1 mps 639 mmHg 71%
    07:00 +22°C° 0 mm 1 mps 639 mmHg 65%
    08:00 +23°C° 0 mm 2 mps 639 mmHg 60%
    09:00 +25°C° 0 mm 2 mps 640 mmHg 54%
    10:00 +26°C° 0.2 mm 2 mps 640 mmHg 49%
    11:00 +28°C° 0.2 mm 2 mps 640 mmHg 45%
    12:00 +29°C° 0.2 mm 2 mps 640 mmHg 40%
    13:00 +29°C° 0.3 mm 3 mps 640 mmHg 40%
    14:00 +29°C° 0.3 mm 4 mps 640 mmHg 39%
    15:00 +30°C° 0.3 mm 4 mps 639 mmHg 39%
    16:00 +28°C° 0.3 mm 4 mps 639 mmHg 43%
    17:00 +27°C° 0.3 mm 4 mps 639 mmHg 47%
    18:00 +26°C° 0.3 mm 4 mps 639 mmHg 51%
    19:00 +23°C° 0 mm 4 mps 639 mmHg 57%
    20:00 +21°C° 0 mm 4 mps 639 mmHg 63%
    21:00 +19°C° 0 mm 4 mps 639 mmHg 69%
    22:00 +18°C° 0 mm 3 mps 639 mmHg 69%
    23:00 +18°C° 0 mm 3 mps 639 mmHg 69%
    Show more